Lovelock, NV

9:47 PM PDT on March 29, 2017 (GMT -0700)
Derby

Weather History for KLOL - March, 2014

Change the Weather History Date:

Friday, March 14, 2014

  Actual Average Record
Temperature  
Mean Temperature 44 °F -  
Max Temperature 64 °F 57 °F 75 °F (2007)
Min Temperature 24 °F 28 °F 8 °F (1977)
Degree Days  
Heating Degree Days 22    
Moisture  
Dew Point 20 °F    
Average Humidity 42    
Maximum Humidity 60    
Minimum Humidity 19    
Precipitation  
Precipitation 0.00 in - - ()
Sea Level Pressure  
Sea Level Pressure 30.18 in    
Wind  
Wind Speed 5 mph (NNW)    
Max Wind Speed 21 mph    
Max Gust Speed 21 mph    
Visibility 10 miles    
Events      
Averages and records for this station are not official NWS values.
T = Trace of Precipitation, MM = Missing Value Source: NWS Daily Summary

Daily Weather History Graph

Daily Weather History Graph

Search for Another Location

Airport or City:

Trip Planner

Search our weather history database for the weather conditions in past years. The results will help you decide how hot, cold, wet, or windy it might be!

Date:

Astronomy

Mar. 14, 2014 Rise Set
Actual Time 7:07 AM PDT 7:00 PM PDT
Civil Twilight 6:40 AM PDT 7:27 PM PDT
Nautical Twilight 6:08 AM PDT 7:58 PM PDT
Astronomical Twilight 5:37 AM PDT 8:30 PM PDT
Moon 5:26 PM PDT (3/14) 5:49 AM PDT (3/14)
Length of Visible Light 12h 46m
Length of Day
11h 52m
Waxing Gibbous, 96% of the Moon is Illuminated
Mar 14
Waxing Gibbous
Mar 16
Full
Mar 23
Last Quarter
Mar 30
New
Apr 7
First Quarter

Hourly Weather History & Observations

Time (PDT) Temp. Windchill Dew Point Humidity Pressure Visibility Wind Dir Wind Speed Gust Speed Precip Events Conditions
12:53 AM 30.0 °F 23.2 °F 12.9 °F 49% 30.06 in 10.0 mi East 6.9 mph - N/A   Clear
1:53 AM 28.0 °F - 12.9 °F 53% 30.08 in 10.0 mi Calm Calm - N/A   Clear
2:53 AM 26.1 °F - 10.9 °F 53% 30.08 in 10.0 mi Calm Calm - N/A   Clear
3:53 AM 24.1 °F - 12.0 °F 60% 30.07 in 10.0 mi Calm Calm - N/A   Clear
4:53 AM 25.0 °F 18.1 °F 12.0 °F 58% 30.08 in 10.0 mi SW 5.8 mph - N/A   Scattered Clouds
5:53 AM 24.1 °F - 12.0 °F 60% 30.11 in 10.0 mi Calm Calm - N/A   Clear
6:53 AM 28.0 °F 24.2 °F 14.0 °F 56% 30.12 in 10.0 mi West 3.5 mph - N/A   Overcast
7:53 AM 30.0 °F - 16.0 °F 56% 30.16 in 10.0 mi Calm Calm - N/A   Overcast
8:53 AM 34.0 °F - 19.0 °F 54% 30.18 in 10.0 mi Calm Calm - N/A   Overcast
9:53 AM 45.0 °F 43.5 °F 18.0 °F 34% 30.16 in 10.0 mi SSW 3.5 mph - N/A   Clear
10:53 AM 50.0 °F - 18.0 °F 28% 30.19 in 10.0 mi NW 4.6 mph - N/A   Clear
11:53 AM 59.0 °F - 16.0 °F 19% 30.17 in 10.0 mi Variable 4.6 mph - N/A   Scattered Clouds
12:53 PM 60.1 °F - 21.9 °F 23% 30.19 in 10.0 mi NW 20.7 mph - N/A   Overcast
1:53 PM 59.0 °F - 27.0 °F 29% 30.19 in 10.0 mi NNE 8.1 mph - N/A   Mostly Cloudy
2:53 PM 62.1 °F - 24.1 °F 23% 30.18 in 10.0 mi North 10.4 mph - N/A   Mostly Cloudy
3:53 PM 63.0 °F - 27.0 °F 26% 30.17 in 10.0 mi NW 9.2 mph - N/A   Mostly Cloudy
4:53 PM 62.1 °F - 27.0 °F 26% 30.19 in 10.0 mi North 11.5 mph 20.7 mph N/A   Mostly Cloudy
5:53 PM 60.1 °F - 28.0 °F 30% 30.21 in 10.0 mi NNW 11.5 mph - N/A   Clear
6:53 PM 57.0 °F - 28.9 °F 34% 30.22 in 10.0 mi North 8.1 mph - N/A   Scattered Clouds
7:53 PM 48.9 °F - 27.0 °F 43% 30.25 in 10.0 mi NW 5.8 mph - N/A   Clear
8:53 PM 46.0 °F 41.9 °F 25.0 °F 44% 30.28 in 10.0 mi NW 8.1 mph - N/A   Clear
9:53 PM 43.0 °F 37.2 °F 25.0 °F 49% 30.28 in 10.0 mi WNW 10.4 mph - N/A   Clear
10:53 PM 41.0 °F - 23.0 °F 49% 30.30 in 10.0 mi Calm Calm - N/A   Clear
11:53 PM 39.0 °F 36.8 °F 23.0 °F 53% 30.31 in 10.0 mi NNE 3.5 mph - N/A   Clear